EHI
0 0 0 0 0 0 0 0 0 0 0 0 0 0 0 0 0 0 0 0 0 0 0 0 0 0 0 0 0 0 0 0 0 0 0 0 0 0
0 0 0 0 0 0 0 0 0 0 0 0 0 0 0 0 0 0 0 0 0 0 0 0 0 0 0 0 0 0 0 0 0 0 0 0 0 0
0 0 0 0 0 0 0 0 0 0 0 0 0 0 0 0 0 0 0 0 0 0 0 0 0 0 0 0 0 0 0 0 0 0 0 0 0 0
0 0 0 0 0 0 0 0 0 0 0 0 0 0 0 0 0 0 0 0 0 0 0 0 0 0 0 0 0 0 0 0 0 0 0 0 0 0
0 0 0 0 0 0 0 0 0 0 0 0 0 0 0 0 0 0 0 1 0 0 0 0 0 0 0 0 0 0 0 0 0 0 0 0 0 0
0 0 0 0 0 0 0 0 0 0 0 0 0 0 0 0 0 0 0 0 0 0 0 0 0 0 0 0 0 0 0 0 0 0 0 0 0 0
0 0 0 0 0 0 0 0 0 0 0 0 0 0 0 0 0 0 0 0 0 0 0 0 0 0 0 0 0 0 0 0 0 0 0 0 0 0
0 0 0 0 0 0 0 0 0 0 0 0 0 0 0 0 0 0 0 0 0 0 0 0 0 0 0 0 0 0 0 0 0 0 0 0 0 0
0 0 0 0 0 0 0 0 0 0 0 0 0 0 0 0 0 0 0 0 0 0 0 0 0 0 0 0 0 0 0 0 0 0 0 0 0 0
0 0 0 0 0 0 0 0 0 0 0 0 0 0 0 0 0 0 0 0 0 0 0 0 0 0 0 0 0 0 0 0 0 0 0 0 0 0
0 0 0 0 0 0 0 0 0 0 0 0 0 0 0 0 0 0 0 0 0 0 0 0 0 0 0 0 0 0 0 0 0 0 0 0 0 0
0 0 0 0 0 0 0 0 0 0 0 0 0 0 0 0 0 0 0 0 0 0 0 0 0 0 0 0 0 0 0 0 0 0 0 0 0 0
0 0 0 0 0 0 0 0 0 0 0 0 0 0 0 0 0 0 0 0 0 0 0 0 0 0 0 0 0 0 0 0 0 0 0 0 0 0
0 0 0 0 0 0 0 0 0 0 0 0 0 0 0 0 0 0 0 0 0 0 0 0 0 0 0 0 0 0 0 0 0 0 0 0 0 0
0 0 0 0 0 0 0 0 0 0 0 0 0 0 0 0 0 0 0 0 0 0 0 0 0 0 0 0 0 0 0 0 0 0 0 0 0 0
0 0 0 0 0 0 0 0 0 0 0 0 0 0 0 0 0 0 0 0 0 0 0 0 0 0 0 0 0 0 0 0 0 0 0 0 0 0
0 0 0 0 0 0 0 0 0 0 0 0 0 0 0 0 0 0 0 0 0 0 0 0 0 0 0 0 0 0 0 0 0 0 0 0 0 0
0 0 0 0 0 0 0 0 0 0 0 0 0 0 0 0 0 0 0 0 0 0 0 0 0 0 0 0 0 0 0 0 0 0 0 0 0 0
0 0 0 0 0 0 0 0 0 0 0 0 0 0 0 0 0 0 0 0 0 0 0 0 0 0 0 0 0 0 0 0 0 0 0 0 0 0
0 0 0 0 0 0 0 0 0 0 0 0 0 0 0 0 0 0 0 0 0 0 0 0 0 0 0 0 0 0 0 0 0 0 0 0 0 0
0 0 0 0 0 0 0 0 0 0 0 0 0 0 0 0 0 0 0 0 0 0 0 0 0 0 0 0 0 0 0 0 0 0 0 0 0 0
0 0 0 0 0 0 0 0 0 0 0 0 0 0 0 0 0 0 0 0 0 0 0 0 0 0 0 0 0 0 0 0 0 0 0 0 0 0
0 0 0 0 0 0 0 0 0 0 0 0 0 0 0 0 0 0 0 0 0 0 0 0 0 0 0 0 0 0 0 0 0 0 0 0 0 0
Wind_Speed
4 4 3 3 3 3 2 2 3 2 1 1 2 2 2 2 3 3 3 7 9 10 11 11 12 12 12 13 13 14 14 13 13 12 12 11 11 11
3 4 4 3 3 3 3 2 2 3 2 1 1 1 2 3 4 3 4 7 8 8 9 10 11 11 12 13 13 13 13 13 12 12 12 11 11 11
3 4 4 3 3 3 3 3 3 3 3 1 1 1 3 3 2 2 3 3 3 7 7 8 9 9 10 11 12 12 12 12 12 12 12 11 11 10
3 3 3 3 3 3 2 3 2 3 3 2 1 1 2 2 1 1 2 3 2 5 6 6 7 7 8 9 10 10 11 11 11 11 12 12 11 11
3 3 3 4 3 2 3 3 2 2 2 2 1 1 1 1 2 2 2 2 2 4 5 4 5 5 6 6 7 8 8 9 9 9 10 10 10 10
3 4 4 4 4 3 3 3 3 2 2 2 1 1 1 1 2 1 1 1 1 2 3 2 3 4 4 4 5 5 6 6 7 7 8 9 9 9
4 4 5 7 8 5 4 3 3 2 2 2 1 1 1 2 1 1 1 1 2 1 1 1 1 1 1 2 3 3 4 4 5 6 6 7 8 8
3 3 4 5 5 6 7 6 5 3 2 1 1 1 1 1 1 1 1 2 2 2 1 1 1 0 0 0 1 1 1 1 2 3 4 5 5 7
2 2 2 4 4 2 2 2 3 3 2 2 1 1 1 1 1 1 1 1 1 2 1 2 1 1 1 0 1 1 1 2 2 3 4 5 5 6
1 1 2 3 2 3 1 1 1 1 1 2 2 1 1 1 1 1 1 1 1 1 1 1 2 1 2 1 3 2 2 3 4 4 5 5 5 6
1 2 2 3 3 4 2 1 1 0 1 3 3 2 1 1 1 2 2 1 1 2 0 0 1 2 2 1 2 3 3 4 4 5 6 6 6 6
1 2 3 4 3 3 1 1 0 1 0 1 1 2 3 2 2 1 1 0 0 2 1 1 1 1 3 2 1 2 3 4 5 5 5 6 6 3
1 2 2 5 4 3 2 1 1 1 1 1 1 1 1 1 1 2 2 2 1 2 2 0 1 1 1 3 3 2 2 2 2 3 5 6 6 4
1 1 2 5 5 4 2 2 1 1 1 1 1 1 1 1 1 1 2 2 2 3 3 1 1 2 1 3 4 3 2 3 2 2 3 5 6 7
0 2 3 3 3 2 3 4 2 1 1 1 2 2 2 2 1 1 1 1 2 3 3 3 3 2 2 3 4 3 3 3 3 2 2 2 3 3
2 2 3 3 2 2 3 3 3 3 3 3 3 2 2 1 1 1 2 2 2 3 4 4 4 3 3 4 3 4 3 3 3 3 3 3 3 3
3 2 1 2 2 2 2 3 3 3 3 3 3 3 2 2 2 2 2 2 2 3 3 3 3 3 4 4 4 4 4 4 3 3 3 4 4 4
3 2 2 3 3 3 3 3 3 3 3 3 3 3 3 3 3 2 2 3 3 3 3 3 2 2 3 4 5 4 4 4 4 3 3 4 5 5
3 3 3 3 3 3 3 3 3 3 3 3 3 3 3 3 3 3 3 3 3 4 3 3 2 2 3 6 5 4 4 4 3 3 4 4 6 6
2 2 3 3 2 2 2 2 2 2 2 2 2 2 3 3 3 3 3 3 3 3 3 2 2 3 5 6 5 4 5 4 4 5 5 5 5 7
3 3 3 2 2 2 2 1 1 2 2 1 2 2 2 2 3 3 3 4 4 3 4 4 5 6 3 2 4 5 4 7 8 6 5 5 5 5
2 2 2 2 2 2 1 1 2 2 2 2 2 2 2 2 3 3 3 3 3 4 4 4 3 2 2 4 6 7 6 5 7 10 10 8 5 6
2 1 2 2 1 1 1 2 2 2 2 2 2 2 2 2 2 3 3 3 3 4 3 3 3 3 4 4 5 5 7 7 5 5 6 9 13 15
Wind_Direction
61 63 58 49 45 47 64 89 113 108 69 50 57 53 68 73 74 77 73 65 65 58 52 48 45 43 43 45 47 48 49 50 51 51 52 52 53 52
67 66 56 52 48 42 43 48 73 113 108 71 90 86 69 80 80 86 89 76 73 68 58 52 47 45 46 46 47 48 47 47 47 46 47 48 49 48
85 85 75 56 56 42 39 50 57 83 101 76 92 89 76 73 49 63 110 93 80 77 71 61 54 49 48 49 49 48 47 45 43 42 41 41 42 41
78 91 95 83 67 49 46 58 63 78 102 113 86 66 79 93 71 46 81 95 104 95 90 77 68 60 55 54 53 51 49 47 43 38 36 36 36 34
68 71 79 83 76 65 63 61 51 69 83 97 83 65 68 70 53 32 58 61 100 110 100 86 80 73 65 61 60 54 49 46 42 36 32 30 28 28
81 67 56 61 60 55 61 57 56 55 67 77 78 65 57 44 68 39 21 10 44 70 62 85 85 79 73 68 70 60 51 43 38 33 27 22 20 19
93 92 86 85 76 67 63 51 52 50 54 64 62 49 35 38 26 353 37 3 12 39 34 23 81 70 50 58 75 64 55 39 28 23 18 12 8 6
119 125 124 110 100 90 83 77 75 72 61 48 36 62 38 47 37 24 42 31 340 328 22 320 71 65 199 136 119 90 54 27 5 357 355 351 348 347
90 115 124 126 132 132 122 108 68 65 91 109 75 24 37 24 56 15 9 15 250 252 41 318 335 345 310 62 157 220 256 271 293 307 318 325 326 326
97 115 113 119 122 111 123 139 127 72 110 111 109 79 76 35 70 198 242 298 307 310 89 311 312 311 312 285 227 234 257 270 279 290 300 306 310 309
149 91 97 102 109 103 85 108 120 152 136 143 147 155 131 1 23 37 9 30 324 302 341 119 299 313 301 278 254 258 276 277 281 292 297 297 298 300
148 118 107 118 108 110 106 83 156 252 144 126 218 250 242 249 245 182 185 184 284 302 310 60 309 351 319 294 291 284 285 283 283 287 294 296 295 298
165 152 147 144 136 139 139 151 221 256 290 244 238 246 242 224 209 202 189 171 189 245 272 80 298 311 263 291 294 276 271 283 283 285 282 289 293 288
177 128 147 157 160 171 181 214 266 328 315 304 287 271 261 258 234 202 206 206 204 225 245 200 215 230 260 284 284 290 295 282 266 272 274 281 281 281
149 136 147 162 174 195 219 232 245 244 246 256 257 253 235 225 218 241 280 263 270 265 256 236 220 229 222 249 269 281 294 290 278 277 282 279 274 279
213 204 191 185 203 233 234 235 227 222 214 227 242 253 259 255 243 222 234 254 274 282 270 248 226 219 246 255 259 274 274 277 290 285 285 289 288 276
178 173 180 189 208 226 231 228 220 216 224 232 238 251 255 252 250 236 228 243 252 265 278 280 257 234 228 236 262 268 273 278 276 280 291 292 285 277
159 184 208 213 218 220 221 227 223 222 224 223 229 232 234 238 249 250 233 229 246 256 260 262 273 307 312 283 239 259 269 271 275 277 276 282 285 283
171 211 219 222 227 227 226 226 232 233 224 222 227 229 228 234 241 246 247 247 250 253 255 250 234 227 268 278 276 237 251 269 278 278 268 263 272 277
208 218 226 227 226 227 231 234 240 250 249 243 239 243 239 239 243 246 245 247 252 259 268 265 243 229 238 256 265 266 241 246 261 269 271 270 268 273
216 225 229 228 227 226 229 231 233 241 248 241 245 255 259 256 256 253 250 257 256 258 260 256 249 245 248 269 281 279 267 247 246 254 265 277 284 287
227 230 234 233 225 221 224 231 240 245 245 245 248 251 255 256 261 265 266 268 263 260 262 265 271 275 261 257 267 274 279 279 267 266 261 254 264 274
240 235 244 249 242 233 232 240 242 248 247 251 257 262 264 267 269 268 270 268 271 273 277 284 283 271 262 258 267 276 284 287 285 286 276 268 266 270